Hourly Data Report for July 29, 2021

SWAN RIVER RCS
MANITOBA
Current Station Operator: ECCC - MSC

52°06'53.900" N
101°13'58.500" W
334.80 m
504K80K
71443
WEQ

Download Data

Hourly Data (July 2021)
Hourly Data Report for July 29, 2021
TIME
LST
Temp Definition
°C
Dew Point Definition
°C
Rel Hum Definition
%
Precip. Amount Definition
mm

Wind Dir Definition
10's deg

Wind Spd Definition
km/h
Visibility Definition
km
Stn Press Definition
kPa
Hmdx Definition


Wind Chill Definition


Weather Definition


00:00 12.7 9.7 82 0.0 23 2   98.17     LegendNANA
01:00 12.5 10.7 89 0.0 27 5   98.18     LegendNANA
02:00 9.4 7.8 90 0.0 17 5   98.18     LegendNANA
03:00 9.3 8.1 92 0.0 20 6   98.19     LegendNANA
04:00 9.2 7.9 92 0.0 19 4   98.20     LegendNANA
05:00 9.7 8.7 94 0.0 24 6   98.17     LegendNANA
06:00 10.4 8.8 90 0.0 25 3   98.20     LegendNANA
07:00 13.3 10.7 84 0.0 5 3   98.27     LegendNANA
08:00 16.2 11.3 73 0.0 19 7   98.26     LegendNANA
09:00 20.1 12.5 61 0.0 20 5   98.21     LegendNANA
10:00 22.8 13.0 54 0.0 25 4   98.18 26   LegendNANA
11:00 24.9 12.9 47 0.0 22 7   98.14 28   LegendNANA
12:00 27.5 12.1 38 0.0 25 11   98.05 30   LegendNANA
13:00 29.9 11.2 32 0.0 24 15   97.97 32   LegendNANA
14:00 31.0 10.3 28 0.0 24 23   97.89 32   LegendNANA
15:00 31.6 9.2 25 0.0 24 26   97.83 33   LegendNANA
16:00 31.5 9.3 25 0.0 25 22   97.80 32   LegendNANA
17:00 30.8 8.1 24 0.0 25 24   97.76 31   LegendNANA
18:00 30.3 8.9 26 0.0 25 18   97.75 31   LegendNANA
19:00 27.8 10.5 34 0.0 23 14   97.72 29   LegendNANA
20:00 23.8 12.7 50 0.0 20 11   97.69 26   LegendNANA
21:00 20.8 13.2 62 0.0 20 12   97.68     LegendNANA
22:00 21.1 12.9 60 0.0 21 13   97.68     LegendNANA
23:00 20.7 12.3 59 0.0 22 16   97.67     LegendNANA

Notes on Data Quality.

Legend

  • E = Estimated
  • M = Missing
  • NA = Not Available*
  • [empty] = Indicates an unobserved value
Date modified: